Location: Unspecified
(41.1637°N, 24.2901°E)
Time: 14:32:35
(UTC+01:00)

ISS - Pass Details

Date: 22 November 2020
Orbit: 418 x 421 km, 51.6° (Epoch: 29 November)

Event Time Altitude Azimuth Distance (km) Brightness Sun altitude
Rises 18:06:57 0° 262° (W) 2,355 1.5 -23.9°
Reaches altitude 10° 18:09:14 10° 275° (W) 1,494 0.1 -24.3°
Enters shadow 18:11:26 25° 312° (NW) 883 -1.8 -24.7°
